Welcome to the New NWS' Forecast!
Most changes are behind the scenes, but click here for differences you might notice.

Regional Weather Roundup (RWR)

Issued by Charleston, SC (CHS)

                            
486 
ASUS42 KCHS 201227
RWRCHS

Regional Weather Roundup
National Weather Service Charleston SC
800 AM EDT MON AUG 20 2018

NOTE: "fair" indicates few or no clouds below 12,000 feet with no
significant weather and/or obstructions to visibility.

Not all stations are quality controlled. Use data with caution,
especially dewpoint observations.

SCZ027-030-031-034>040-042>050-201300-
...Southeast South Carolina...
  
CITY           SKY/WX    TMP DP  RH WIND       PRES   REMARKS
N Charleston   FAIR      77  72  84 W7        30.06R                  
6HR MIN TEMP:  74; 6HR MAX TEMP:  77;                                

Waterfront Prk   N/A     78  73  84 CALM      29.90R                  
Mount Pleasant FAIR      79  73  83 W7        30.07R                  
Johns Island   FAIR      79  73  83 W6        30.07R                  
Pinopolis        N/A     75  73  94 SW8       29.98R                  
Moncks Corner  FAIR      75  72  88 SW3       30.07R                  
Summerville    FAIR      73  72  94 CALM      30.08R                  
Beaufort MCAS  NOT AVBL                                               
Beaufort Arpt  FAIR      77  72  83 W8        30.08R                  
Hilton Head Is SUNNY     75  73  94 W3        30.08R                  
Walterboro     FAIR      75  72  88 W5        30.08S                  
Allendale      PTSUNNY   75  73  94 CALM      30.07R                  

...Southern Midlands and Pee Dee...
  
CITY           SKY/WX    TMP DP  RH WIND       PRES   REMARKS
Georgetown     FAIR      77  77 100 SW7       30.07R                  
Kingstree      FAIR      73  72  94 CALM      30.07R                  
Orangeburg     CLOUDY    73  70  90 S5        30.06R                  
6HR MIN TEMP:  71; 6HR MAX TEMP:  75;                                

Barnwell       CLOUDY    73  72  94 SW9       30.07S                  
Aiken          CLOUDY    73  73 100 W6        30.09R FOG              
Manning        FAIR      70  68  94 SW3       30.08R                  
Columbia       PTSUNNY   76  74  93 W3        30.05R                  
6HR MIN TEMP:  75; 6HR MAX TEMP:  78;                                

Sumter         FAIR      73  72  94 S3        30.05R                  
6HR MIN TEMP:  72; 6HR MAX TEMP:  76;                                

Florence       FAIR      76  72  87 SW8       30.06R                  
6HR MIN TEMP:  74; 6HR MAX TEMP:  78;                                

Myrtle Beach   FAIR      78  71  79 W8        30.06R                  
N Myrtle Beach FAIR      78  71  79 W5        30.05R                  
6HR MIN TEMP:  78; 6HR MAX TEMP:  80;                                


$$
 
GAZ063-065-086>088-099>101-113>116-118-119-134>141-150-201300-
...Southeast Georgia...
  
CITY           SKY/WX    TMP DP  RH WIND       PRES   REMARKS
Savannah Arpt  PTSUNNY   76  73  91 SW5       30.08R                  
6HR MIN TEMP:  73; 6HR MAX TEMP:  76;                                

Hunter AAF     FAIR      75  73  93 CALM      30.06R                  
6HR MIN TEMP:  73; 6HR MAX TEMP:  75; 6HR PCP: TRACE;                

Fort Stewart   FAIR      74  72  95 CALM      30.06R                  
6HR MIN TEMP:  72; 6HR MAX TEMP:  74;                                

Statesboro     CLOUDY    73  72  94 CALM      30.09R                  
Sylvania       CLOUDY    74  73  99 CALM      30.10R                  
Claxton        FAIR      76  74  93 CALM      30.08S FOG              

...CSRA, Central and far Southeast Georgia...
  
CITY           SKY/WX    TMP DP  RH WIND       PRES   REMARKS
Thomson        CLOUDY    74  72  93 W6        30.11R                  
Augusta-Bush   PTSUNNY   77  73  87 W5        30.04R                  
6HR MIN TEMP:  73; 6HR MAX TEMP:  76;                                

Augusta-Daniel CLOUDY    76  74  93 W5        30.06R                  
Swainsboro     CLOUDY    73  73 100 S3        30.09R                  
Vidalia        CLOUDY    73  70  88 SW3       30.09S                  
Eastman        PTSUNNY   78  32  18 S3        30.11R                  
Hazlehurst     FAIR      76  72  87 CALM      30.09R                  
Alma           FOG       75  73  93 CALM      30.08R VSB 1/4          
6HR MIN TEMP:  74; 6HR MAX TEMP:  76;                                

Waycross       FAIR      77  74  91 SW3       30.09R                  
Jesup          NOT AVBL                                               
Baxley         FOG       72  72 100 CALM      30.09R VSB 3/4          
Brunswick      FAIR      77  72  83 CALM      30.10R                  
Saint Simons   FAIR      79  74  84 W5        30.08R                  
6HR MIN TEMP:  76; 6HR MAX TEMP:  80;                                


$$

SCZ027-028-034-036>038-045-046-048>050-GAZ119-141-201300-
...Lake and Supplemental Coastal Observations...
  
STATION/POSITION TIME  TEMP    WIND        PRES    WAVE   SWELL
                       AIR SEA DIR/SP/G            HT/PER HT/PER/DIR
                 (UTC) (F)     (DEG/KT/KT) (MB)    (FT/S) (FT/S/D)
Winyah Bay       1145   77     260/  5     1018.0R
Lake Murray      1120   76     230/  8/ 10 1015.9
ACE Basin NERRS  NOT AVBL
Fort Pulaski     1148   78 83  250/  5/  6 1019.0R
Sapelo Island    1200   79     250/  4     1019.0

$$

ANZ835-935-AMZ111-154-330-350-352-354-370-450-454-472-201300-
...C-MAN and Buoy Observations...
  
STATION/POSITION TIME  TEMP    WIND        PRES    WAVE   SWELL
                       AIR SEA DIR/SP/G            HT/PER HT/PER/DIR
                 (UTC) (F)     (DEG/KT/KT) (MB)    (FT/S) (FT/S/D)
Buoy 41004       1200   82 83  260/ 10/ 12 1018.3
Buoy 41008       1150   81 82  270/ 10/ 12 1018.6R   2/ 5   2/140/ 5
Folly Beach CMAN 1200   78     270/  4/  7 1018.8R
Capers Nearshore 1208   81 81  270/ 10/ 12 1017.5R
Fripp Nearshore  1208   80 84  290/ 12/ 16 1018.0R

  
STATION/POSITION TIME  TEMP    WIND        PRES    WAVE   SWELL
                       AIR SEA DIR/SP/G            HT/PER HT/PER/DIR
                 (UTC) (F)     (DEG/KT/KT) (MB)    (FT/S) (FT/S/D)
5E St. Marys GA  1130      80                N/A     2/ 5
Frying Pan Buoy  1200   82 82  240/ 16/ 17 1017.8
Buoy 41025       1200   79 81  240/  8/ 16 1017.8
Cape Lookout NC  1200          240/  8/ 11 1017.5R
Buoy 41002       1210      83  190/ 12/ 14 1019.9
Buoy 41010       1210   84 85  170/ 10/ 12 1019.7
St Augustine FL  1200   76 78  240/  6/  7 1019.5R


$$